Location: Strawberry
(45.6646°N, 111.9596°W)
Time: 18:47:28
(UTC+00:00)

Envisat - Visible Passes

Search period start: 17 August 2022 00:00
Search period end: 27 August 2022 00:00
Orbit: 763 x 765 km, 98.2° (Epoch: 16 August)

Date Brightness Start Highest point End Pass type
(mag) Time Alt. Az. Time Alt. Az. Time Alt. Az.
17 Aug 4.0 11:34:52 10° NNE 11:39:49 50° E 11:44:43 10° S visible
18 Aug 5.2 10:58:33 10° NE 11:02:38 24° E 11:06:39 10° SE visible
19 Aug 5.9 10:24:03 10° ENE 10:25:13 11° E 10:26:23 10° E visible
19 Aug 3.1 11:59:53 10° NNE 12:04:59 84° ESE 12:10:04 10° SSW visible
20 Aug 4.4 11:23:10 10° NNE 11:27:57 39° E 11:32:40 10° SSE visible
21 Aug 5.5 10:47:07 10° NE 10:50:41 19° E 10:54:13 10° SE visible
22 Aug 3.4 11:48:05 10° NNE 11:53:10 67° ESE 11:58:12 10° S visible
23 Aug 4.8 11:11:33 10° NNE 11:16:03 31° E 11:20:32 10° SSE visible
24 Aug 5.7 10:35:53 10° NE 10:38:43 15° E 10:41:33 10° ESE visible
25 Aug 3.8 11:36:20 10° NNE 11:41:19 52° E 11:46:15 10° S visible
26 Aug 5.1 10:59:58 10° NE 11:04:08 25° E 11:08:16 10° SSE visible
